Regional Weather Roundup
Issued by NWS

Home | Current Version | Previous Version | Graphics & Text | Print | Product List | Glossary On
Versions: 1 2 3 4 5 6 7 8 9 10 11 12 13 14 15 16 17 18 19 20 21 22 23 24 25 26 27 28 29 30 31 32 33 34 35 36 37 38 39 40 41 42 43 44 45 46 47 48 49 50
000
ASUS43 KLSX 221159
RWRMO

WEATHER SUMMARY FOR MISSOURI
NATIONAL WEATHER SERVICE SPRINGFIELD MO
700 AM CDT TUE APR 22 2014

NOTE: "FAIR" INDICATES FEW OR NO CLOUDS BELOW 12,000 FEET WITH NO
       SIGNIFICANT WEATHER AND/OR OBSTRUCTIONS TO VISIBILITY.
       CURRENT SKY AND/OR WEATHER CONDITIONS ARE NOT AVAILABLE FOR
       CHILLICOTHE AND FARMINGTON.

MOZ001>031-035>038-043-044-053-054-221300-
...NORTHERN AND WESTERN MISSOURI...

CITY           SKY/WX    TMP DP  RH WIND       PRES   REMARKS
KANSAS CTY INT CLEAR     42  33  70 N8        30.13R
6HR MIN TEMP:  42; 6HR MAX TEMP:  57;

KANSAS C DTWN  CLEAR     48  34  58 N7        30.13R
6HR MIN TEMP:  48; 6HR MAX TEMP:  61;

LEE`S SUMMIT   CLEAR     47  34  60 N9        30.12R
6HR MIN TEMP:  47; 6HR MAX TEMP:  61;

ST JOSEPH      CLEAR     42  33  70 N9        30.15R
6HR MIN TEMP:  41; 6HR MAX TEMP:  53;

KIRKSVILLE     CLEAR     44  33  65 N12       30.10R
6HR MIN TEMP:  43; 6HR MAX TEMP:  54;


$$
MOZ066>068-077>081-088>096-101>105-221300-
...SOUTHWEST MISSOURI...

CITY           SKY/WX    TMP DP  RH WIND       PRES   REMARKS
SPRINGFIELD    CLEAR     52  47  83 N10       30.06R
6HR MIN TEMP:  52; 6HR MAX TEMP:  60;

JOPLIN         CLEAR     50  41  71 NE6       30.09R
6HR MIN TEMP:  49; 6HR MAX TEMP:  59;


$$
MOZ032>034-039>042-045>050-055>058-069>072-221300-
...CENTRAL MISSOURI...

CITY           SKY/WX    TMP DP  RH WIND       PRES   REMARKS
COLUMBIA       CLEAR     47  38  71 N10       30.07R
6HR MIN TEMP:  46; 6HR MAX TEMP:  58;

JEFFERSON CITY CLEAR     50  39  66 NW6       30.07R
6HR MIN TEMP:  50; 6HR MAX TEMP:  62;

ROLLA          CLEAR     47  41  80 NW13      30.04R
6HR MIN TEMP:  46; 6HR MAX TEMP:  61;

SEDALIA        CLEAR     48  38  68 N8        30.10R
6HR MIN TEMP:  47; 6HR MAX TEMP:  59;

OSAGE BEACH    CLEAR     50  39  66 NW5       30.09R

$$
MOZ051-052-059>065-221300-
...EAST CENTRAL MISSOURI...

CITY           SKY/WX    TMP DP  RH WIND       PRES   REMARKS
ST LOUIS INTL  CLEAR     54  41  61 NW12      30.01R
6HR MIN TEMP:  53; 6HR MAX TEMP:  63;

SPIRIT OF STL  CLEAR     51  41  68 NW7       30.01R
6HR MIN TEMP:  51; 6HR MAX TEMP:  60;

ST CHARLES     CLEAR     52  40  63 N13       30.00R
6HR MIN TEMP:  52; 6HR MAX TEMP:  63;


$$
MOZ072>076-082>087-097>100-106>115-221300-
...SOUTH CENTRAL AND SOUTHEAST MISSOURI...

CITY           SKY/WX    TMP DP  RH WIND       PRES   REMARKS
CAPE GIRARDEAU PTCLDY    60  55  83 N13       29.93R
6HR MIN TEMP:  58; 6HR MAX TEMP:  64; 6HR PCP:  0.01;

FARMINGTON     CLEAR     54  48  82 NW10G17   30.01R
6HR MIN TEMP:  54; 6HR MAX TEMP:  61;

POPLAR BLUFF   CLEAR     61  54  77 N13       29.93R
6HR MIN TEMP:  61; 6HR MAX TEMP:  64; 6HR PCP: TRACE;

WEST PLAINS    CLEAR     56  45  66 N10       30.01R
6HR MIN TEMP:  56; 6HR MAX TEMP:  61;


$$



USA.gov is the U.S. government's official web portal to all federal, state and local government web resources and services.